This is the latest recevied weather packets stored in our database for station/object XE1GMR. If no packets are shown the sender has not sent any weather packets the latest 10 day(s).
| Time | Temp. | Humidity | Pressure | Rain* | Wind** | Luminosity | Snow |
|---|---|---|---|---|---|---|---|
| 1777646024 | 21.11° C | 48% | 1120.5 hPa | 0 mm | - | 430 W/m² | - |
| 1777645721 | 21.67° C | 51% | 1120.5 hPa | 0 mm | - | 365 W/m² | - |
| 1777645417 | 21.67° C | 43% | 1120.5 hPa | 0 mm | - | 339 W/m² | - |
| 1777645113 | 21.11° C | 41% | 1120.3 hPa | 0 mm | - | 325 W/m² | - |
| 1777644810 | 20.56° C | 41% | 1120.5 hPa | 0 mm | - | 305 W/m² | - |
| 1777644508 | 20° C | 41% | 1120.4 hPa | 0 mm | - | 290 W/m² | - |
| 1777644204 | 20.56° C | 39% | 1120.4 hPa | 0 mm | - | 270 W/m² | - |
| 1777643900 | 20° C | 40% | 1120.4 hPa | 0 mm | - | 258 W/m² | - |
| 1777643598 | 20° C | 41% | 1120.4 hPa | 0 mm | - | 235 W/m² | - |
| 1777643295 | 20° C | 41% | 1120.2 hPa | 0 mm | - | 215 W/m² | - |
| 1777642991 | 19.44° C | 40% | 1120.3 hPa | 0 mm | - | 193 W/m² | - |
| 1777642688 | 18.33° C | 43% | 1120.4 hPa | 0 mm | - | 175 W/m² | - |
| 1777642385 | 17.22° C | 45% | 1120.5 hPa | 0 mm | - | 158 W/m² | - |
| 1777642081 | 16.67° C | 49% | 1120.4 hPa | 0 mm | - | 147 W/m² | - |
| 1777641778 | 16.11° C | 48% | 1120.3 hPa | 0 mm | - | 134 W/m² | - |
| 1777641477 | 16.11° C | 50% | 1120.5 hPa | 0 mm | - | 116 W/m² | - |
| 1777641173 | 15.56° C | 50% | 1120.4 hPa | 0 mm | - | 104 W/m² | - |
| 1777640869 | 15.56° C | 51% | 1120.1 hPa | 0 mm | - | 88 W/m² | - |
| 1777640567 | 15.56° C | 50% | 1120.2 hPa | 0 mm | - | 68 W/m² | - |
| 1777640263 | 15° C | 50% | 1120.1 hPa | 0 mm | - | 54 W/m² | - |
| 1777639959 | 15° C | 51% | 1120.1 hPa | 0 mm | - | 49 W/m² | - |
| 1777639657 | 14.44° C | 52% | 1120 hPa | 0 mm | - | 42 W/m² | - |
| 1777639355 | 14.44° C | 52% | 1120 hPa | 0 mm | - | 37 W/m² | - |
| 1777639049 | 13.89° C | 53% | 1119.9 hPa | 0 mm | - | 30 W/m² | - |
| 1777638746 | 13.89° C | 54% | 1119.7 hPa | 0 mm | - | 25 W/m² | - |
* Rain latest hour (hover to see other rain measurements)
** Current wind speed in m/s (hover to see current wind gust speed)